Buffalo, NY
on Saturday, December 9, 2017

Saturday
       
Previous Day Next Day
Daily Summary
 ActualAverageRecord
Temperature
Mean Temperature °F °C 32°F 0°C  
Max Temperature 33°F 1°C 38°F 3°C 62°F 16°C (1952)
Min Temperature 23°F -5°C 26°F -3°C 5°F -15°C (1876)
Degree Days
Heating Degree Days 37 33  
Month to date heating degree days 259 284  
Since 1 July heating degree days 1374 1617  
Cooling Degree Days 0 0  
Month to date cooling degree days 0 0  
Year to date cooling degree days 603 544  
Moisture
Dew Point 16°F -9°C   
Average Humidity 63    
Maximum Humidity 85    
Minimum Humidity 41    
Precipitation
Precipitation T in / T cm 0.13 in / 3.30 cm 1.73 in / 4.39 cm (1977)
Month to date precipitation 0.81 1.12  
Year to date precipitation 46.36 37.71  
Snow
Snow T in / T cm 0.80 in / 2.03 cm 12.90 in / 32.77 cm (1977)
Month to date snowfall 4.3 6.0  
Since 1 July snowfall 4.5 14.8  
Snow Depth 2.00 in / 5.08 cm   
Wind
Wind Speed 8 mph / 13 km/h   
Max Wind Speed 15 mph / 24 km/h   
Max Gust Speed 20 mph / 32 km/h   
Visibility 10 miles / 16 kilometers   
Events Snow   

Key: T is trace of precipitation, MM is missing value
Source: NWS Daily Summary
Time(EST)TemperatureDew PointHumidity Pressure Visibility Wind DirectionWind SpeedGust SpeedPrecipitationEvents Conditions
12:42 AM 28.0°F -2.2°C 15.1°F -9.4°C 58% 29.88 in / 1011.7 hPa 9.0 miles / 14.5 kilometers South 10.4 mph / 16.7 km/h - 0.00 in / 0.0 cm Snow Light Snow
12:54 AM 28.0°F -2.2°C 15.1°F -9.4°C 58% 29.90 in / 1012.5 hPa 9.0 miles / 14.5 kilometers South 11.5 mph / 18.5 km/h - 0.00 in / 0.0 cm Snow Light Snow
1:54 AM 27.0°F -2.8°C 16.0°F -8.9°C 63% 29.91 in / 1012.6 hPa 10.0 miles / 16.1 kilometers SSW 13.8 mph / 22.2 km/h - 0.00 in / 0.0 cm   Overcast
2:54 AM 27.0°F -2.8°C 15.1°F -9.4°C 61% 29.91 in / 1012.8 hPa 10.0 miles / 16.1 kilometers SSW 11.5 mph / 18.5 km/h - N/A   Overcast
3:54 AM 26.1°F -3.3°C 16.0°F -8.9°C 66% 29.90 in / 1012.5 hPa 10.0 miles / 16.1 kilometers South 10.4 mph / 16.7 km/h - N/A   Overcast
4:34 AM 26.1°F -3.3°C 15.1°F -9.4°C 63% 29.87 in / 1011.4 hPa 10.0 miles / 16.1 kilometers South 10.4 mph / 16.7 km/h - N/A   Overcast
4:54 AM 26.1°F -3.3°C 16.0°F -8.9°C 66% 29.90 in / 1012.5 hPa 10.0 miles / 16.1 kilometers South 9.2 mph / 14.8 km/h - N/A   Overcast
5:54 AM 25.0°F -3.9°C 15.1°F -9.4°C 66% 29.88 in / 1011.9 hPa 10.0 miles / 16.1 kilometers SSE 12.7 mph / 20.4 km/h - N/A   Overcast
6:54 AM 23.0°F -5.0°C 14.0°F -10.0°C 68% 29.89 in / 1012.2 hPa 10.0 miles / 16.1 kilometers South 8.1 mph / 13.0 km/h - N/A   Mostly Cloudy
7:54 AM 23.0°F -5.0°C 12.9°F -10.6°C 65% 29.89 in / 1012.0 hPa 10.0 miles / 16.1 kilometers SSE 8.1 mph / 13.0 km/h - N/A   Mostly Cloudy
8:54 AM 24.1°F -4.4°C 12.9°F -10.6°C 62% 29.88 in / 1011.7 hPa 10.0 miles / 16.1 kilometers SSE 10.4 mph / 16.7 km/h - N/A   Mostly Cloudy
9:54 AM 26.1°F -3.3°C 14.0°F -10.0°C 60% 29.88 in / 1011.9 hPa 10.0 miles / 16.1 kilometers SSW 5.8 mph / 9.3 km/h - N/A   Mostly Cloudy
10:54 AM 28.0°F -2.2°C 14.0°F -10.0°C 56% 29.86 in / 1011.1 hPa 10.0 miles / 16.1 kilometers SW 10.4 mph / 16.7 km/h - N/A   Mostly Cloudy
11:54 AM 28.9°F -1.7°C 12.9°F -10.6°C 51% 29.81 in / 1009.5 hPa 10.0 miles / 16.1 kilometers SSW 10.4 mph / 16.7 km/h - N/A   Mostly Cloudy
12:54 PM 32.0°F 0.0°C 12.9°F -10.6°C 45% 29.80 in / 1008.9 hPa 10.0 miles / 16.1 kilometers SW 8.1 mph / 13.0 km/h - N/A   Mostly Cloudy
1:54 PM 32.0°F 0.0°C 12.9°F -10.6°C 45% 29.77 in / 1008.0 hPa 10.0 miles / 16.1 kilometers SW 8.1 mph / 13.0 km/h - N/A   Mostly Cloudy
2:54 PM 33.1°F 0.6°C 12.9°F -10.6°C 43% 29.77 in / 1007.9 hPa 10.0 miles / 16.1 kilometers West 5.8 mph / 9.3 km/h - N/A   Scattered Clouds
3:54 PM 32.0°F 0.0°C 14.0°F -10.0°C 48% 29.78 in / 1008.2 hPa 10.0 miles / 16.1 kilometers West 5.8 mph / 9.3 km/h - N/A   Mostly Cloudy
4:54 PM 28.9°F -1.7°C 15.1°F -9.4°C 56% 29.78 in / 1008.5 hPa 10.0 miles / 16.1 kilometers WNW 4.6 mph / 7.4 km/h - N/A   Mostly Cloudy
5:54 PM 30.9°F -0.6°C 16.0°F -8.9°C 54% 29.79 in / 1008.6 hPa 10.0 miles / 16.1 kilometers NNW 3.5 mph / 5.6 km/h - N/A   Mostly Cloudy
6:54 PM 30.0°F -1.1°C 17.1°F -8.3°C 59% 29.79 in / 1008.8 hPa 10.0 miles / 16.1 kilometers Calm Calm - N/A   Overcast
7:54 PM 30.9°F -0.6°C 19.0°F -7.2°C 61% 29.80 in / 1008.9 hPa 10.0 miles / 16.1 kilometers West 9.2 mph / 14.8 km/h - N/A   Overcast
8:54 PM 30.0°F -1.1°C 21.9°F -5.6°C 72% 29.79 in / 1008.8 hPa 10.0 miles / 16.1 kilometers West 6.9 mph / 11.1 km/h - N/A   Overcast
9:54 PM 28.9°F -1.7°C 23.0°F -5.0°C 78% 29.79 in / 1008.7 hPa 7.0 miles / 11.3 kilometers West 5.8 mph / 9.3 km/h - 0.00 in / 0.0 cm Snow Light Snow
10:54 PM 28.9°F -1.7°C 24.1°F -4.4°C 82% 29.79 in / 1008.7 hPa 9.0 miles / 14.5 kilometers SW 4.6 mph / 7.4 km/h - 0.00 in / 0.0 cm Snow Light Snow
11:54 PM 28.9°F -1.7°C 24.1°F -4.4°C 82% 29.78 in / 1008.4 hPa 9.0 miles / 14.5 kilometers SW 6.9 mph / 11.1 km/h - 0.00 in / 0.0 cm Snow Light Snow